Regional Weather Roundup
Issued by NWS Cleveland, OH

Home | Current Version | Previous Version | Graphics & Text | Print | Product List | Glossary On
Versions: 1 2 3 4 5 6 7 8 9 10 11 12 13 14 15 16 17 18 19 20 21 22 23 24 25 26 27 28 29 30 31 32 33 34 35 36 37 38 39 40 41 42 43 44 45 46 47 48 49 50
000
ASUS41 KCLE 301510
RWRCLE
OHIO REGIONAL WEATHER ROUNDUP
NATIONAL WEATHER SERVICE CLEVELAND, OH
1100 AM EDT WED JUL 30 2014

NOTE: "FAIR" INDICATES FEW OR NO CLOUDS BELOW 12,000 FEET WITH NO
SIGNIFICANT WEATHER AND/OR OBSTRUCTIONS TO VISIBILITY.

OHZ001>008-015>018-024>027-034-035-043-044-301600-
   NORTHWEST OHIO

CITY           SKY/WX    TMP DP  RH WIND       PRES   REMARKS
DEFIANCE       MOSUNNY   68  58  70 CALM      30.03S
FINDLAY        PTSUNNY   69  60  73 VRB3      30.03S
TOLEDO EXPRESS MOSUNNY   69  56  62 VRB3      30.02S
TOLEDO EXEC    MOSUNNY   70  56  61 W6        30.03S
LIMA           PTSUNNY   69  61  75 W8        30.04R
$$

OHZ009>014-019>023-028>033-038-089-301600-
   NORTHEAST OHIO

CITY           SKY/WX    TMP DP  RH WIND       PRES   REMARKS
CLE-HOPKINS    CLOUDY    65  58  78 SW7       30.04S
CLE-LAKEFRONT  CLOUDY    68  60  75 SW7       30.01S
CUY CO. ARPT   CLOUDY    70  61  73 W8        30.03R
LORAIN-ELYRIA  CLOUDY    68  59  73 W7        30.04R
ASHTABULA      MOSUNNY   67  60  78 SW6       30.02S
AKRON-CANTON   PTSUNNY   68  57  68 VRB5      30.05R
WOOSTER        CLOUDY    65  58  78 W5        30.06R
MANSFIELD      LGT RAIN  61  58  90 S8        30.06S
YOUNGSTOWN     PTSUNNY   68  57  68 SW8       30.03S
$$

OHZ042-051>053-060>062-070>072-077>081-301600-
  SOUTHWEST OHIO

CITY           SKY/WX    TMP DP  RH WIND       PRES   REMARKS
CINC-COVINGTON MOSUNNY   73  60  63 W8        30.09R
CINC-LUNKEN    SUNNY     72  60  66 SW5       30.08S
HAMILTON       SUNNY     73  62  68 VRB5      30.07F
DAYTON         PTSUNNY   71  60  68 SW10      30.07R
WRIGHT-PAT AFB MOSUNNY   72  60  67 S8        30.05F
DAYTON GENERAL MOSUNNY   72  60  66 SW7       30.06S
WILMINGTON     SUNNY     71  59  65 SW8       30.07S
$$

OHZ036-037-039>041-045>050-054>059-063>069-073>076-082>088-301600-
  CENTRAL AND SOUTHEAST OHIO

CITY           SKY/WX    TMP DP  RH WIND       PRES   REMARKS
COLUMBUS       MOSUNNY   71  59  65 SW6       30.06S
OSU AIRPORT    MOSUNNY   69  59  70 W5        30.05S
BOLTON FIELD   MOSUNNY   66  61  82 W6        30.07R
RICKENBACK AFB MOSUNNY   71  57  60 SW8       30.06S
NEWARK         MOSUNNY   68  59  73 SW8       30.06R
MARION         LGT RAIN  64  59  83 SE3       30.05F
LANCASTER      MOSUNNY   70  60  70 SW7       30.07S
ZANESVILLE     SUNNY     68  57  68 VRB5      30.06S
NEW PHILLY     MOSUNNY   68  60  75 VRB5      30.06S
$$


USA.gov is the U.S. government's official web portal to all federal, state and local government web resources and services.